GFSGBSN_prec_kuchsnow_234.txt.gz
Snowfall_Accumulation
0.0 0.0 0.0 0.0 0.0 0.0 0.0 0.0 0.0 0.0 0.0 0.0 0.0 0.0 0.0 0.0 0.0 0.0 0.0 0.0 0.0 0.0 0.0 0.0 0.0 0.0 0.0 0.0 0.0 0.0 0.0 0.0 0.0 0.0 0.0 0.0 0.0 0.0 0.0 0.0 0.0 0.0 0.0 0.0 0.0 0.0 0.0
0.0 0.0 0.0 0.0 0.0 0.0 0.0 0.0 0.0 0.0 0.0 0.0 0.0 0.0 0.0 0.0 0.0 0.0 0.0 0.0 0.0 0.0 0.0 0.0 0.0 0.0 0.0 0.0 0.0 0.0 0.0 0.0 0.0 0.0 0.0 0.0 0.0 0.0 0.0 0.0 0.0 0.0 0.0 0.0 0.0 0.0 0.0
0.0 0.0 0.0 0.0 0.0 0.0 0.0 0.0 0.0 0.0 0.0 0.0 0.0 0.0 0.0 0.0 0.0 0.0 0.0 0.0 0.0 0.0 0.0 0.0 0.0 0.0 0.0 0.0 0.0 0.0 0.0 0.0 0.0 0.0 0.0 0.0 0.0 0.0 0.0 0.0 0.0 0.0 0.0 0.0 0.0 0.0 0.0
0.0 0.0 0.0 0.0 0.0 0.0 0.0 0.0 0.0 0.0 0.0 0.0 0.0 0.0 0.0 0.0 0.0 0.0 0.0 0.0 0.0 0.0 0.0 0.0 0.0 0.0 0.0 0.0 0.0 0.0 0.0 0.0 0.0 0.0 0.0 0.0 0.0 0.0 0.0 0.0 0.0 0.0 0.0 0.0 0.0 0.0 0.0
0.0 0.0 0.0 0.0 0.0 0.0 0.0 0.0 0.0 0.0 0.0 0.0 0.0 0.0 0.0 0.0 0.0 0.0 0.0 0.0 0.0 0.0 0.0 0.0 0.0 0.0 0.0 0.0 0.0 0.0 0.0 0.0 0.0 0.0 0.0 0.0 0.0 0.0 0.0 0.0 0.0 0.0 0.0 0.0 0.0 0.0 0.0
0.0 0.0 0.0 0.0 0.0 0.0 0.0 0.0 0.0 0.0 0.0 0.0 0.0 0.0 0.0 0.0 0.0 0.0 0.0 0.0 0.0 0.0 0.0 0.0 0.0 0.1 0.0 0.0 0.0 0.0 0.0 0.0 0.0 0.0 0.0 0.0 0.0 0.0 0.0 0.0 0.0 0.0 0.0 0.0 0.0 0.0 0.0
0.0 0.0 0.0 0.0 0.0 0.0 0.0 0.0 0.0 0.0 0.0 0.0 0.0 0.0 0.0 0.0 0.0 0.0 0.0 0.0 0.0 0.0 0.0 0.0 0.0 0.0 0.0 0.0 0.0 0.0 0.0 0.0 0.0 0.0 0.0 0.0 0.0 0.0 0.0 0.0 0.0 0.0 0.0 0.0 0.0 0.0 0.0
0.0 0.0 0.0 0.0 0.0 0.0 0.0 0.0 0.0 0.0 0.0 0.0 0.0 0.0 0.0 0.0 0.0 0.0 0.0 0.0 0.0 0.0 0.0 0.0 0.0 0.0 0.0 0.0 0.0 0.0 0.0 0.0 0.0 0.0 0.0 0.0 0.0 0.0 0.0 0.0 0.0 0.0 0.0 0.0 0.0 0.0 0.0
0.0 0.0 0.0 0.0 0.0 0.0 0.0 0.0 0.0 0.0 0.0 0.0 0.0 0.0 0.0 0.0 0.0 0.0 0.0 0.0 0.0 0.0 0.2 0.0 0.0 0.0 0.0 0.0 0.0 0.0 0.0 0.0 0.0 0.0 0.0 0.0 0.0 0.0 0.0 0.0 0.0 0.0 0.0 0.0 0.0 0.0 0.0
0.0 0.0 0.0 0.0 0.0 0.0 0.0 0.0 0.0 0.0 0.0 0.0 0.0 0.0 0.0 0.0 0.0 0.0 0.0 0.0 0.0 0.0 2.2 0.0 0.0 0.0 0.0 0.0 0.0 0.0 0.0 0.0 0.0 0.0 0.0 0.0 0.0 0.0 0.0 0.0 0.0 0.0 0.0 0.0 0.0 0.0 0.0
0.0 0.0 0.0 0.0 0.0 0.0 0.0 0.0 0.0 0.0 0.0 0.0 0.0 0.0 0.0 0.0 0.0 0.0 0.0 0.0 0.0 0.0 77.8 0.0 0.0 0.0 0.0 0.0 0.0 0.0 0.0 0.0 0.0 0.0 0.0 0.0 0.0 0.0 0.0 0.0 0.0 0.0 0.0 0.0 0.0 0.0 0.0
0.0 0.0 0.0 0.0 0.0 0.0 0.0 0.0 0.0 0.0 0.0 0.0 0.0 0.0 0.0 0.0 0.0 0.0 0.0 0.0 0.0 30.4 72.9 0.0 0.0 0.0 0.0 0.0 0.0 0.0 0.0 0.0 0.0 0.0 0.0 0.0 0.0 0.0 0.0 0.0 0.0 0.0 0.0 0.0 0.0 0.0 0.0
0.0 0.0 0.0 0.0 0.0 0.0 0.0 0.0 0.0 0.0 0.0 0.0 0.0 0.0 0.0 0.0 0.0 0.0 0.0 0.0 33.9 79.5 0.0 0.0 0.0 0.0 0.0 0.0 0.0 0.0 0.0 0.0 0.1 2.9 1.4 0.0 0.0 0.0 0.0 0.0 0.0 0.0 0.0 1.5 0.9 0.2 0.0
0.0 0.0 0.0 0.0 0.0 0.0 0.0 0.0 0.0 0.0 0.0 0.0 0.0 0.0 0.0 0.0 0.0 0.0 0.0 11.3 86.9 1.2 0.0 0.0 0.0 0.0 0.2 0.0 0.0 0.0 0.0 0.3 0.0 0.0 0.5 0.5 0.5 0.0 0.0 0.0 0.0 0.0 0.0 1.7 5.5 0.5 0.0
0.0 0.0 0.0 0.0 0.0 0.0 0.0 0.0 0.0 0.0 0.0 0.0 0.0 0.0 0.0 0.0 0.0 0.0 5.0 72.2 30.6 0.0 0.5 0.3 0.0 0.1 0.1 0.0 0.4 0.2 0.3 2.2 2.4 1.5 5.8 3.1 0.1 0.0 0.0 0.0 0.0 0.5 0.3 0.0 3.7 0.4 0.5
0.0 0.0 0.0 0.0 0.0 0.0 0.0 0.0 0.0 0.0 0.0 0.0 0.0 0.0 0.0 0.0 0.0 0.0 20.2 30.9 3.3 0.0 0.0 0.0 0.4 0.3 0.2 0.2 0.4 2.0 5.2 1.7 1.1 0.6 0.8 1.7 3.4 0.0 0.0 0.0 0.0 0.0 0.0 1.6 2.3 10.7 3.1
0.0 0.0 0.0 0.0 0.0 0.0 0.0 0.0 0.0 0.0 0.0 0.0 0.0 3.0 0.0 0.0 0.0 7.4 63.4 12.7 1.1 0.0 0.0 0.0 0.0 0.0 0.1 0.3 0.3 2.2 4.4 1.7 0.0 0.5 0.0 1.7 2.3 0.1 0.0 0.7 0.4 0.7 2.0 1.1 3.1 4.2 9.1
0.0 0.0 0.0 0.0 0.0 0.0 0.0 0.0 0.0 0.0 0.0 0.0 0.0 24.1 0.0 0.0 23.2 27.1 30.4 1.3 0.0 0.0 0.0 0.0 0.0 0.0 0.2 0.5 1.3 3.0 4.7 0.5 0.0 0.2 2.3 2.7 6.4 2.5 0.1 0.0 0.0 0.0 0.2 0.5 19.3 13.1 7.4
0.0 0.0 0.0 0.0 0.0 0.0 0.0 0.0 0.0 0.0 0.0 0.0 6.6 8.0 0.0 0.0 43.8 28.7 0.8 0.4 0.1 0.0 0.0 0.0 0.3 0.1 0.0 0.0 1.5 0.2 0.0 0.0 0.0 0.0 2.4 1.9 5.1 12.0 0.9 0.0 0.0 0.2 0.5 0.3 1.7 5.2 8.6
0.0 0.0 0.0 0.0 0.0 0.0 0.0 0.0 0.0 0.0 0.0 0.0 5.3 63.0 13.1 0.0 1.0 5.0 7.1 5.0 3.8 0.4 0.1 0.0 0.5 0.4 0.3 1.8 0.3 0.2 0.1 0.0 0.0 0.0 0.0 0.0 6.0 11.1 13.2 5.9 1.7 3.9 1.7 1.7 2.9 14.1 4.7
0.0 0.0 0.0 0.0 0.0 0.0 0.0 0.0 0.0 0.0 0.0 0.0 13.1 36.6 0.3 43.9 31.1 5.1 3.3 3.3 2.4 2.7 0.0 0.1 0.9 0.2 1.5 2.8 2.4 1.8 0.3 0.2 0.0 0.0 0.0 1.4 13.7 8.2 4.8 1.7 0.9 2.0 1.7 1.7 7.2 3.9 5.7
0.0 0.0 0.0 0.0 0.0 0.0 0.0 0.0 0.0 0.0 0.0 0.0 47.8 23.0 1.7 2.9 0.7 3.1 3.9 6.7 1.9 0.5 1.6 1.2 2.2 1.0 1.1 3.2 1.1 3.5 1.4 0.0 0.5 0.0 0.0 1.0 9.2 4.6 5.2 0.9 0.5 1.2 0.7 2.6 3.3 2.2 0.3
0.0 0.0 0.0 0.0 0.0 0.0 0.0 0.0 0.0 0.0 0.0 10.0 1.6 0.0 4.4 5.1 4.5 10.2 5.6 1.8 1.2 0.2 0.0 0.0 0.0 0.7 1.3 1.0 0.3 0.7 0.6 0.6 0.0 2.2 2.6 7.0 11.3 12.0 11.8 1.6 3.7 14.3 2.7 1.7 7.7 2.3 2.6
0.0 0.0 0.0 0.0 0.0 0.0 0.0 0.0 0.0 0.0 0.0 1.9 0.0 0.2 15.5 25.3 5.7 2.8 0.2 0.4 0.2 0.1 1.3 0.1 0.0 0.6 0.3 0.0 0.0 0.5 0.7 0.5 0.2 0.1 0.8 6.1 8.7 11.2 16.9 6.3 31.7 2.9 0.0 0.0 0.6 2.9 2.6
0.0 0.0 0.0 0.0 0.0 0.0 0.0 0.0 0.0 0.0 0.0 0.0 0.0 0.5 11.4 23.2 3.5 2.2 1.0 0.7 1.0 0.0 1.4 1.1 0.7 0.0 0.0 0.1 9.9 19.7 15.4 11.2 4.9 1.3 0.3 0.1 3.9 16.7 24.7 12.2 3.8 1.0 0.1 0.0 0.3 1.6 0.2
0.0 0.0 0.0 0.0 0.0 0.0 0.0 0.0 0.0 0.0 0.0 0.0 0.0 0.0 5.5 18.6 7.4 0.2 3.3 1.2 4.5 5.1 6.8 3.1 0.0 0.0 0.0 9.1 28.9 29.1 19.4 7.3 9.8 2.6 0.4 0.2 0.2 8.0 15.9 22.7 13.1 1.0 0.0 0.0 0.0 4.0 0.3
0.0 0.0 0.0 0.0 0.0 0.0 0.0 0.0 0.0 0.0 0.0 0.0 0.0 0.0 1.3 23.8 0.9 0.2 3.3 3.3 1.7 3.1 6.2 3.5 4.3 4.3 2.4 21.1 31.6 18.6 10.8 1.2 8.0 7.8 6.7 8.1 8.0 24.2 14.6 14.9 2.7 0.3 0.0 0.0 3.8 4.0 0.7
0.0 0.0 0.0 0.0 0.0 0.0 0.0 0.0 0.0 0.0 0.0 0.0 0.0 0.0 0.2 15.1 4.9 0.0 0.0 1.8 4.1 5.1 15.8 8.5 10.4 12.8 20.2 35.0 25.4 18.7 11.1 1.5 4.4 2.5 2.4 3.5 13.4 20.4 20.8 30.0 18.7 0.1 0.0 1.0 0.7 0.1 0.6
0.0 0.0 0.0 0.0 0.0 0.0 0.0 0.0 0.0 0.0 0.0 0.0 0.5 0.0 0.0 10.8 10.6 0.0 0.0 0.0 0.0 0.0 3.5 7.7 10.8 7.7 6.8 19.7 14.3 10.1 13.4 9.3 2.3 8.5 2.5 8.6 3.9 9.6 8.5 10.7 1.0 0.0 0.3 0.2 0.2 0.4 1.1

GFSGBSN_prec_kuchsnow_240.txt.gz
Snowfall_Accumulation
0.0 0.0 0.0 0.0 0.0 0.0 0.0 0.0 0.0 0.0 0.0 0.0 0.0 0.0 0.0 0.0 0.0 0.0 0.0 0.0 0.0 0.0 0.0 0.0 0.0 0.0 0.0 0.0 0.0 0.0 0.0 0.0 0.0 0.0 0.0 0.0 0.0 0.0 0.0 0.0 0.0 0.0 0.0 0.0 0.0 0.0 0.0
0.0 0.0 0.0 0.0 0.0 0.0 0.0 0.0 0.0 0.0 0.0 0.0 0.0 0.0 0.0 0.0 0.0 0.0 0.0 0.0 0.0 0.0 0.0 0.0 0.0 0.0 0.0 0.0 0.0 0.0 0.0 0.0 0.0 0.0 0.0 0.0 0.0 0.0 0.0 0.0 0.0 0.0 0.0 0.0 0.0 0.0 0.0
0.0 0.0 0.0 0.0 0.0 0.0 0.0 0.0 0.0 0.0 0.0 0.0 0.0 0.0 0.0 0.0 0.0 0.0 0.0 0.0 0.0 0.0 0.0 0.0 0.0 0.0 0.0 0.0 0.0 0.0 0.0 0.0 0.0 0.0 0.0 0.0 0.0 0.0 0.0 0.0 0.0 0.0 0.0 0.0 0.0 0.0 0.0
0.0 0.0 0.0 0.0 0.0 0.0 0.0 0.0 0.0 0.0 0.0 0.0 0.0 0.0 0.0 0.0 0.0 0.0 0.0 0.0 0.0 0.0 0.0 0.0 0.0 0.0 0.0 0.0 0.0 0.0 0.0 0.0 0.0 0.0 0.0 0.0 0.0 0.0 0.0 0.0 0.0 0.0 0.0 0.0 0.0 0.0 0.0
0.0 0.0 0.0 0.0 0.0 0.0 0.0 0.0 0.0 0.0 0.0 0.0 0.0 0.0 0.0 0.0 0.0 0.0 0.0 0.0 0.0 0.0 0.0 0.0 0.0 0.0 0.0 0.0 0.0 0.0 0.0 0.0 0.0 0.0 0.0 0.0 0.0 0.0 0.0 0.0 0.0 0.0 0.0 0.0 0.0 0.0 0.0
0.0 0.0 0.0 0.0 0.0 0.0 0.0 0.0 0.0 0.0 0.0 0.0 0.0 0.0 0.0 0.0 0.0 0.0 0.0 0.0 0.0 0.0 0.0 0.0 0.0 0.1 0.0 0.0 0.0 0.0 0.0 0.0 0.0 0.0 0.0 0.0 0.0 0.0 0.0 0.0 0.0 0.0 0.0 0.0 0.0 0.0 0.0
0.0 0.0 0.0 0.0 0.0 0.0 0.0 0.0 0.0 0.0 0.0 0.0 0.0 0.0 0.0 0.0 0.0 0.0 0.0 0.0 0.0 0.0 0.0 0.0 0.0 0.0 0.0 0.0 0.0 0.0 0.0 0.0 0.0 0.0 0.0 0.0 0.0 0.0 0.0 0.0 0.0 0.0 0.0 0.0 0.0 0.0 0.0
0.0 0.0 0.0 0.0 0.0 0.0 0.0 0.0 0.0 0.0 0.0 0.0 0.0 0.0 0.0 0.0 0.0 0.0 0.0 0.0 0.0 0.0 0.0 0.0 0.0 0.0 0.0 0.0 0.0 0.0 0.0 0.0 0.0 0.0 0.0 0.0 0.0 0.0 0.0 0.0 0.0 0.0 0.0 0.0 0.0 0.0 0.0
0.0 0.0 0.0 0.0 0.0 0.0 0.0 0.0 0.0 0.0 0.0 0.0 0.0 0.0 0.0 0.0 0.0 0.0 0.0 0.0 0.0 0.0 0.2 0.0 0.0 0.0 0.0 0.0 0.0 0.0 0.0 0.0 0.0 1.3 0.0 0.0 0.0 0.0 0.0 0.0 0.0 0.0 0.0 0.0 0.0 0.0 0.0
0.0 0.0 0.0 0.0 0.0 0.0 0.0 0.0 0.0 0.0 0.0 0.0 0.0 0.0 0.0 0.0 0.0 0.0 0.0 0.0 0.0 0.0 2.8 0.0 0.0 0.0 0.0 0.0 0.0 0.0 0.0 0.0 0.0 0.0 0.0 0.0 0.0 0.0 0.0 0.0 0.0 0.0 0.0 0.0 0.0 0.0 0.0
0.0 0.0 0.0 0.0 0.0 0.0 0.0 0.0 0.0 0.0 0.0 0.0 0.0 0.0 0.0 0.0 0.0 0.0 0.0 0.0 0.0 0.0 79.5 0.0 0.0 0.0 0.0 0.0 0.0 0.0 0.0 0.0 0.9 0.0 0.0 0.6 0.0 0.0 0.0 0.0 0.0 0.0 0.0 0.0 0.0 0.0 0.0
0.0 0.0 0.0 0.0 0.0 0.0 0.0 0.0 0.0 0.0 0.0 0.0 0.0 0.0 0.0 0.0 0.0 0.0 0.0 0.0 0.0 32.1 73.9 0.0 0.0 0.0 0.0 0.0 0.0 0.0 0.0 0.0 0.0 0.0 0.0 2.1 0.0 0.0 0.0 0.0 0.0 0.0 0.0 0.0 0.0 0.0 0.0
0.0 0.0 0.0 0.0 0.0 0.0 0.0 0.0 0.0 0.0 0.0 0.0 0.0 0.0 0.0 0.0 0.0 0.0 0.0 0.0 36.0 80.3 0.0 0.0 0.0 0.0 0.0 0.0 0.0 0.0 0.0 0.6 2.7 9.3 5.9 0.0 0.0 0.0 0.0 0.0 0.0 0.0 0.0 1.5 0.9 0.2 0.3
0.0 0.0 0.0 0.0 0.0 0.0 0.0 0.0 0.0 0.0 0.0 0.0 0.0 0.0 0.0 0.0 0.0 0.0 0.0 11.8 88.5 1.2 0.0 0.0 0.0 0.0 0.2 0.0 0.0 0.5 0.6 1.9 0.2 0.6 2.9 2.8 2.9 0.0 0.0 0.0 0.0 0.0 0.0 1.7 7.1 1.0 0.0
0.0 0.0 0.0 0.0 0.0 0.0 0.0 0.0 0.0 0.0 0.0 0.0 0.0 0.0 0.0 0.0 0.0 0.0 5.1 73.2 30.6 0.0 0.5 0.3 0.0 0.1 0.1 0.0 0.9 1.1 1.9 3.1 2.7 3.0 10.1 5.4 1.7 0.0 0.0 0.0 0.0 0.5 0.3 0.0 3.7 0.4 0.5
0.0 0.0 0.0 0.0 0.0 0.0 0.0 0.0 0.0 0.0 0.0 0.0 0.0 0.0 0.0 0.0 0.0 0.0 21.1 31.1 3.3 0.0 0.0 0.0 0.7 0.3 0.2 0.2 0.5 2.0 7.0 3.8 2.9 2.8 5.6 3.4 5.0 0.0 0.0 0.0 0.0 0.0 0.0 1.6 2.3 14.1 4.5
0.0 0.0 0.0 0.0 0.0 0.0 0.0 0.0 0.0 0.0 0.0 0.0 0.0 3.0 0.0 0.0 0.0 7.4 64.9 12.8 1.1 0.0 0.0 0.1 0.0 0.0 0.1 0.3 0.3 2.2 4.4 1.7 1.3 2.1 0.8 5.7 6.7 0.1 0.0 0.7 0.4 0.7 2.0 1.1 3.1 4.2 9.4
0.0 0.0 0.0 0.0 0.0 0.0 0.0 0.0 0.0 0.0 0.0 0.0 0.0 24.3 0.0 0.0 23.7 27.1 30.9 1.3 0.0 0.0 0.0 0.0 0.0 0.0 0.2 0.5 1.3 3.0 4.8 0.5 0.0 0.2 3.8 4.9 11.3 3.7 0.5 0.0 0.0 0.0 0.2 0.5 22.3 15.4 7.4
0.0 0.0 0.0 0.0 0.0 0.0 0.0 0.0 0.0 0.0 0.0 0.0 6.6 8.0 0.0 0.0 44.4 29.1 0.8 0.4 0.1 0.1 0.0 0.1 0.3 0.1 0.0 0.0 1.5 0.2 0.0 0.0 0.0 0.0 2.5 2.1 7.2 12.0 0.9 0.0 1.2 2.1 4.2 6.9 5.8 5.2 8.6
0.0 0.0 0.0 0.0 0.0 0.0 0.0 0.0 0.0 0.0 0.0 0.0 5.3 63.3 13.1 0.0 1.0 5.1 7.4 5.2 4.0 0.4 0.1 0.0 0.5 0.4 0.3 1.8 0.3 0.2 0.1 0.0 0.0 0.0 0.0 0.0 6.4 11.9 15.3 10.3 7.5 11.3 6.3 7.7 8.8 19.0 5.6
0.0 0.0 0.0 0.0 0.0 0.0 0.0 0.0 0.0 0.0 0.0 0.0 13.1 36.9 0.3 44.3 31.2 5.2 3.3 3.4 2.5 2.7 0.0 0.1 0.9 0.2 1.7 3.4 2.5 1.8 0.3 0.2 0.0 0.0 0.0 1.5 13.7 8.8 5.5 2.0 1.1 2.5 2.6 2.6 10.4 6.2 7.9
0.0 0.0 0.0 0.0 0.0 0.0 0.0 0.0 0.0 0.0 0.0 0.0 48.3 23.3 1.7 3.0 0.7 3.2 4.0 6.8 2.0 0.5 1.7 1.3 2.4 1.0 1.1 4.5 2.2 4.8 1.7 0.1 0.6 0.0 0.0 1.0 9.4 4.6 5.2 0.9 0.5 1.2 0.7 2.6 3.3 2.3 0.5
0.0 0.0 0.0 0.0 0.0 0.0 0.0 0.0 0.0 0.0 0.0 10.0 1.6 0.0 4.5 5.1 4.6 10.5 5.7 1.9 1.2 0.2 0.0 0.0 0.0 1.0 2.2 1.2 0.3 0.7 0.6 0.6 0.0 2.2 2.6 7.2 11.8 12.1 11.8 1.6 3.8 14.4 2.7 1.7 7.7 2.3 2.6
0.0 0.0 0.0 0.0 0.0 0.0 0.0 0.0 0.0 0.0 0.0 1.9 0.0 0.2 16.4 26.1 5.9 2.9 0.2 0.4 0.3 0.1 1.3 0.1 0.0 0.6 0.3 0.0 0.0 0.5 0.7 0.5 0.2 0.1 0.8 6.1 8.7 11.5 17.1 6.4 31.8 2.9 0.0 0.0 0.6 2.9 2.6
0.0 0.0 0.0 0.0 0.0 0.0 0.0 0.0 0.0 0.0 0.0 0.0 0.0 0.5 12.5 24.5 3.7 2.2 1.1 0.7 1.0 0.0 1.4 1.1 0.7 0.0 0.0 0.1 9.9 20.1 15.4 11.2 4.9 1.3 0.3 0.1 4.0 17.6 25.2 12.4 3.8 1.0 0.1 0.0 0.3 1.6 0.2
0.0 0.0 0.0 0.0 0.0 0.0 0.0 0.0 0.0 0.0 0.0 0.0 0.0 0.0 6.2 20.7 7.8 0.2 3.4 1.3 4.7 5.4 6.9 3.1 0.0 0.0 0.0 9.3 29.8 30.1 19.6 7.4 9.8 2.6 0.4 0.2 0.2 8.7 16.3 22.8 13.1 1.0 0.0 0.0 0.0 4.1 0.3
0.0 0.0 0.0 0.0 0.0 0.0 0.0 0.0 0.0 0.0 0.0 0.0 0.0 0.0 1.3 26.6 1.1 0.2 3.6 3.6 1.7 3.3 6.8 3.6 4.4 4.5 2.4 22.9 33.9 19.4 11.0 1.2 8.0 7.9 6.7 8.1 8.1 25.0 14.9 15.2 2.7 0.3 0.0 0.0 3.8 4.0 0.7
0.0 0.0 0.0 0.0 0.0 0.0 0.0 0.0 0.0 0.0 0.0 0.0 0.0 0.0 0.2 16.4 5.0 0.0 0.0 1.8 4.1 5.1 16.8 8.5 11.9 12.8 20.6 37.1 26.8 19.5 11.8 1.7 4.5 2.5 2.4 3.6 13.8 20.6 21.0 31.0 19.4 0.1 0.0 1.0 0.7 0.1 0.6
0.0 0.0 0.0 0.0 0.0 0.0 0.0 0.0 0.0 0.0 0.0 0.0 0.5 0.0 0.0 11.4 10.8 0.0 0.0 0.0 0.0 0.0 3.6 8.1 12.3 8.0 7.9 22.4 15.7 11.5 15.0 10.3 2.8 9.2 2.5 8.9 3.9 9.7 8.5 10.7 1.0 0.0 0.3 0.2 0.2 0.4 1.1

GFSGBSN_prec_kuchsnow_246.txt.gz
Snowfall_Accumulation
0.0 0.0 0.0 0.0 0.0 0.0 0.0 0.0 0.0 0.0 0.0 0.0 0.0 0.0 0.0 0.0 0.0 0.0 0.0 0.0 0.0 0.0 0.0 0.0 0.0 0.0 0.0 0.0 0.0 0.0 0.0 0.0 0.0 0.0 0.0 0.0 0.0 0.0 0.0 0.0 0.0 0.0 0.0 0.0 0.0 0.0 0.0
0.0 0.0 0.0 0.0 0.0 0.0 0.0 0.0 0.0 0.0 0.0 0.0 0.0 0.0 0.0 0.0 0.0 0.0 0.0 0.0 0.0 0.0 0.0 0.0 0.0 0.0 0.0 0.0 0.0 0.0 0.0 0.0 0.0 0.0 0.0 0.0 0.0 0.0 0.0 0.0 0.0 0.0 0.0 0.0 0.0 0.0 0.0
0.0 0.0 0.0 0.0 0.0 0.0 0.0 0.0 0.0 0.0 0.0 0.0 0.0 0.0 0.0 0.0 0.0 0.0 0.0 0.0 0.0 0.0 0.0 0.0 0.0 0.0 0.0 0.0 0.0 0.0 0.0 0.0 0.0 0.0 0.0 0.0 0.0 0.0 0.0 0.0 0.0 0.0 0.0 0.0 0.0 0.0 0.0
0.0 0.0 0.0 0.0 0.0 0.0 0.0 0.0 0.0 0.0 0.0 0.0 0.0 0.0 0.0 0.0 0.0 0.0 0.0 0.0 0.0 0.0 0.0 0.0 0.0 0.0 0.0 0.0 0.0 0.0 0.0 0.0 0.0 0.0 0.0 0.0 0.0 0.0 0.0 0.0 0.0 0.0 0.0 0.0 0.0 0.0 0.0
0.0 0.0 0.0 0.0 0.0 0.0 0.0 0.0 0.0 0.0 0.0 0.0 0.0 0.0 0.0 0.0 0.0 0.0 0.0 0.0 0.0 0.0 0.0 0.0 0.0 0.0 0.0 0.0 0.0 0.0 0.0 0.0 0.0 0.0 0.0 0.0 0.0 0.0 0.0 0.0 0.0 0.0 0.0 0.0 0.0 0.0 0.0
0.0 0.0 0.0 0.0 0.0 0.0 0.0 0.0 0.0 0.0 0.0 0.0 0.0 0.0 0.0 0.0 0.0 0.0 0.0 0.0 0.0 0.0 0.0 0.0 0.0 0.1 0.0 0.0 0.0 0.0 0.0 0.0 0.0 0.0 0.0 0.0 0.0 0.0 0.0 0.0 0.0 0.0 0.0 0.0 0.0 0.0 0.0
0.0 0.0 0.0 0.0 0.0 0.0 0.0 0.0 0.0 0.0 0.0 0.0 0.0 0.0 0.0 0.0 0.0 0.0 0.0 0.0 0.0 0.0 0.0 0.0 0.0 0.0 0.0 0.0 0.0 0.0 0.0 0.0 0.0 0.0 0.0 0.0 0.0 0.0 0.0 0.0 0.0 0.0 0.0 0.0 0.0 0.0 0.0
0.0 0.0 0.0 0.0 0.0 0.0 0.0 0.0 0.0 0.0 0.0 0.0 0.0 0.0 0.0 0.0 0.0 0.0 0.0 0.0 0.0 0.0 0.0 0.0 0.0 0.0 0.0 0.0 0.0 0.0 0.0 0.0 0.0 0.0 0.0 0.0 0.6 0.0 0.0 0.0 0.0 0.0 0.0 0.0 0.0 0.0 0.0
0.0 0.0 0.0 0.0 0.0 0.0 0.0 0.0 0.0 0.0 0.0 0.0 0.0 0.0 0.0 0.0 0.0 0.0 0.0 0.0 0.0 0.0 0.2 0.0 0.0 0.0 0.0 0.0 0.0 0.0 0.0 0.0 0.0 1.3 0.0 2.1 0.0 0.0 0.0 0.0 0.0 0.0 0.0 0.0 0.0 0.0 0.0
0.0 0.0 0.0 0.0 0.0 0.0 0.0 0.0 0.0 0.0 0.0 0.0 0.0 0.0 0.0 0.0 0.0 0.0 0.0 0.0 0.0 0.0 2.8 0.0 0.0 0.0 0.0 0.0 0.0 0.0 0.0 0.0 0.0 0.0 0.0 0.2 0.0 0.0 0.0 1.2 0.0 0.3 0.0 0.0 0.0 0.0 0.0
0.0 0.0 0.0 0.0 0.0 0.0 0.0 0.0 0.0 0.0 0.0 0.0 0.0 0.0 0.0 0.0 0.0 0.0 0.0 0.0 0.0 0.0 80.0 0.0 0.0 0.0 0.0 0.0 0.0 0.0 0.0 0.0 0.9 0.0 0.0 1.9 0.0 0.0 0.2 0.4 0.0 0.3 0.0 0.0 0.0 0.0 0.0
0.0 0.0 0.0 0.0 0.0 0.0 0.0 0.0 0.0 0.0 0.0 0.0 0.0 0.0 0.0 0.0 0.0 0.0 0.0 0.0 0.0 32.6 73.9 0.0 0.0 0.0 0.0 0.0 0.0 0.0 0.0 0.0 0.0 0.1 0.0 3.3 0.0 0.2 0.0 0.0 0.0 0.0 0.0 0.0 0.0 0.0 0.0
0.0 0.0 0.0 0.0 0.0 0.0 0.0 0.0 0.0 0.0 0.0 0.0 0.0 0.0 0.0 0.0 0.0 0.0 0.0 0.0 36.0 80.7 0.0 0.0 0.0 0.0 0.0 0.0 0.0 0.0 0.0 0.6 3.0 11.6 5.9 0.0 0.3 0.0 0.0 0.0 0.0 0.0 0.0 2.8 1.4 0.9 0.6
0.0 0.0 0.0 0.0 0.0 0.0 0.0 0.0 0.0 0.0 0.0 0.0 0.0 0.0 0.0 0.0 0.0 0.0 0.0 11.8 88.5 1.2 0.0 0.0 0.0 0.0 0.2 0.1 0.0 0.5 0.6 1.9 2.1 2.8 4.6 3.6 2.9 0.0 0.0 0.2 0.0 0.0 0.0 5.4 9.9 1.4 0.1
0.0 0.0 0.0 0.0 0.0 0.0 0.0 0.0 0.0 0.0 0.0 0.0 0.0 0.0 0.0 0.0 0.0 0.0 5.1 73.4 30.6 0.0 0.5 0.3 0.0 0.1 0.1 0.0 0.9 1.1 2.1 3.1 2.7 4.0 12.4 7.2 1.7 0.0 0.0 0.0 0.0 0.5 2.3 0.0 5.1 0.8 0.5
0.0 0.0 0.0 0.0 0.0 0.0 0.0 0.0 0.0 0.0 0.0 0.0 0.0 0.0 0.0 0.0 0.0 0.0 21.1 31.1 3.3 0.0 0.0 0.0 1.0 0.5 0.5 0.2 0.6 2.0 7.0 3.8 2.9 2.9 5.6 4.1 5.2 0.0 0.0 0.0 0.0 0.0 0.0 5.1 3.6 20.9 8.9
0.0 0.0 0.0 0.0 0.0 0.0 0.0 0.0 0.0 0.0 0.0 0.0 0.0 3.0 0.0 0.0 0.0 7.4 64.9 12.8 1.1 0.0 0.0 0.1 0.6 0.2 0.1 0.8 0.4 2.2 4.5 1.8 1.3 2.1 0.8 5.7 7.6 0.1 0.5 1.1 0.5 0.8 3.3 1.7 5.8 6.9 11.5
0.0 0.0 0.0 0.0 0.0 0.0 0.0 0.0 0.0 0.0 0.0 0.0 0.0 24.3 0.0 0.0 23.7 27.1 30.9 1.3 0.0 0.0 0.0 0.0 0.0 0.1 0.5 0.6 1.3 3.0 5.1 0.8 0.0 0.2 3.8 4.9 12.1 4.1 1.0 0.7 0.0 0.0 0.2 0.5 27.7 20.1 7.8
0.0 0.0 0.0 0.0 0.0 0.0 0.0 0.0 0.0 0.0 0.0 0.0 6.6 8.0 0.0 0.0 44.4 29.1 0.8 0.5 0.1 0.1 0.0 0.1 0.5 0.2 0.0 0.0 1.7 0.4 0.1 0.0 0.0 0.0 2.6 2.1 7.2 12.0 1.0 1.9 2.4 6.4 8.0 10.5 10.7 7.7 10.5
0.0 0.0 0.0 0.0 0.0 0.0 0.0 0.0 0.0 0.0 0.0 0.0 5.3 63.3 13.1 0.0 1.0 5.3 7.4 5.2 4.0 0.4 0.1 0.0 0.5 0.4 0.3 1.8 0.4 0.2 0.1 0.0 0.0 0.0 0.0 0.0 6.4 11.9 16.3 13.2 10.7 16.8 9.2 9.1 11.6 23.8 8.4
0.0 0.0 0.0 0.0 0.0 0.0 0.0 0.0 0.0 0.0 0.0 0.0 13.1 36.9 0.3 44.3 31.2 5.2 3.3 3.4 2.5 2.7 0.0 0.1 0.9 0.2 1.9 4.2 2.8 1.9 0.3 0.2 0.0 0.0 0.2 1.5 13.7 8.8 5.5 2.2 1.6 3.4 3.3 3.4 10.9 6.5 10.4
0.0 0.0 0.0 0.0 0.0 0.0 0.0 0.0 0.0 0.0 0.0 0.0 48.3 23.3 1.7 3.0 0.7 3.2 4.0 6.8 2.0 0.5 1.8 1.3 2.4 1.0 1.1 5.0 2.8 5.5 2.1 0.1 0.6 0.0 0.2 1.1 10.7 4.8 5.2 0.9 0.5 1.5 0.8 2.6 3.3 2.4 0.7
0.0 0.0 0.0 0.0 0.0 0.0 0.0 0.0 0.0 0.0 0.0 10.0 1.6 0.0 5.0 5.1 4.6 10.6 5.7 1.9 1.2 0.2 0.0 0.0 0.0 1.0 2.2 1.2 0.3 0.7 0.6 0.6 0.0 2.2 2.6 7.4 11.8 12.7 11.8 1.6 3.8 14.4 2.7 1.7 7.7 2.3 2.6
0.0 0.0 0.0 0.0 0.0 0.0 0.0 0.0 0.0 0.0 0.0 1.9 0.0 0.2 17.5 26.4 5.9 2.9 0.2 0.4 0.3 0.1 1.5 0.1 0.0 0.6 0.3 0.0 0.0 0.5 0.7 0.5 0.2 0.1 0.8 6.1 8.7 11.7 17.2 6.4 31.8 2.9 0.0 0.0 0.6 2.9 2.6
0.0 0.0 0.0 0.0 0.0 0.0 0.0 0.0 0.0 0.0 0.0 0.0 0.0 0.5 14.0 25.9 3.7 2.2 1.1 0.7 1.0 0.0 1.4 1.1 0.7 0.0 0.0 0.2 9.9 20.1 15.4 11.2 4.9 1.3 0.3 0.1 4.0 17.6 25.5 12.4 3.8 1.0 0.1 0.0 0.3 1.6 0.2
0.0 0.0 0.0 0.0 0.0 0.0 0.0 0.0 0.0 0.0 0.0 0.0 0.0 0.0 6.8 22.9 7.8 0.2 3.5 1.3 4.7 5.4 6.9 3.1 0.0 0.0 0.0 10.1 30.5 30.7 19.8 7.4 9.8 2.8 0.4 0.2 0.2 9.0 16.3 23.2 13.1 1.0 0.0 0.0 0.0 4.1 0.3
0.0 0.0 0.0 0.0 0.0 0.0 0.0 0.0 0.0 0.0 0.0 0.0 0.0 0.0 1.7 28.0 1.1 0.2 3.6 3.9 2.1 3.8 7.6 3.6 4.4 4.5 2.4 22.9 35.0 19.4 11.0 1.3 8.0 7.9 6.7 8.3 8.7 25.8 15.0 15.7 2.7 0.3 0.0 0.0 3.8 4.0 0.7
0.0 0.0 0.0 0.0 0.0 0.0 0.0 0.0 0.0 0.0 0.0 0.0 0.0 0.0 0.2 17.3 5.1 0.0 0.0 1.8 4.1 5.1 17.2 8.5 12.4 12.8 20.6 37.7 27.5 20.1 11.8 2.5 4.9 2.5 2.4 3.6 14.5 21.2 21.9 32.0 19.7 0.1 0.0 1.0 0.7 0.1 0.6
0.0 0.0 0.0 0.0 0.0 0.0 0.0 0.0 0.0 0.0 0.0 0.0 0.5 0.0 0.0 12.0 10.8 0.0 0.0 0.0 0.0 0.0 3.8 8.4 12.5 8.0 7.9 24.4 15.7 13.1 16.6 11.2 2.8 10.4 2.6 9.5 4.8 10.9 8.9 10.7 1.0 0.0 0.3 0.2 0.2 0.4 1.1

GFSGBSN_prec_kuchsnow_252.txt.gz
Snowfall_Accumulation
0.0 0.0 0.0 0.0 0.0 0.0 0.0 0.0 0.0 0.0 0.0 0.0 0.0 0.0 0.0 0.0 0.0 0.0 0.0 0.0 0.0 0.0 0.0 0.0 0.0 0.0 0.0 0.0 0.0 0.0 0.0 0.0 0.0 0.0 0.0 0.0 0.0 0.0 0.0 0.0 0.0 0.0 0.0 0.0 0.0 0.0 0.0
0.0 0.0 0.0 0.0 0.0 0.0 0.0 0.0 0.0 0.0 0.0 0.0 0.0 0.0 0.0 0.0 0.0 0.0 0.0 0.0 0.0 0.0 0.0 0.0 0.0 0.0 0.0 0.0 0.0 0.0 0.0 0.0 0.0 0.0 0.0 0.0 0.0 0.0 0.0 0.0 0.0 0.0 0.0 0.0 0.0 0.0 0.0
0.0 0.0 0.0 0.0 0.0 0.0 0.0 0.0 0.0 0.0 0.0 0.0 0.0 0.0 0.0 0.0 0.0 0.0 0.0 0.0 0.0 0.0 0.0 0.0 0.0 0.0 0.0 0.0 0.0 0.0 0.0 0.0 0.0 0.0 0.0 0.0 0.0 0.0 0.0 0.0 0.0 0.0 0.0 0.0 0.0 0.0 0.0
0.0 0.0 0.0 0.0 0.0 0.0 0.0 0.0 0.0 0.0 0.0 0.0 0.0 0.0 0.0 0.0 0.0 0.0 0.0 0.0 0.0 0.0 0.0 0.0 0.0 0.0 0.0 0.0 0.0 0.0 0.0 0.0 0.0 0.0 0.0 0.0 0.0 0.0 0.0 0.0 0.0 0.0 0.0 0.0 0.0 0.0 0.0
0.0 0.0 0.0 0.0 0.0 0.0 0.0 0.0 0.0 0.0 0.0 0.0 0.0 0.0 0.0 0.0 0.0 0.0 0.0 0.0 0.0 0.0 0.0 0.0 0.0 0.0 0.0 0.0 0.0 0.0 0.0 0.0 0.0 0.0 0.0 0.0 0.0 0.0 0.0 0.0 0.0 0.0 0.0 0.0 0.0 0.0 0.0
0.0 0.0 0.0 0.0 0.0 0.0 0.0 0.0 0.0 0.0 0.0 0.0 0.0 0.0 0.0 0.0 0.0 0.0 0.0 0.0 0.0 0.0 0.0 0.0 0.0 0.1 0.0 0.0 0.0 0.0 0.0 0.0 0.0 0.0 0.0 0.0 0.0 0.0 0.0 0.0 0.0 0.0 0.0 0.0 0.0 0.0 0.0
0.0 0.0 0.0 0.0 0.0 0.0 0.0 0.0 0.0 0.0 0.0 0.0 0.0 0.0 0.0 0.0 0.0 0.0 0.0 0.0 0.0 0.0 0.0 0.0 0.0 0.0 0.0 0.0 0.0 0.0 0.0 0.0 0.0 0.0 0.0 0.0 0.0 0.0 0.0 0.0 0.0 0.0 0.0 0.0 0.0 0.0 0.0
0.0 0.0 0.0 0.0 0.0 0.0 0.0 0.0 0.0 0.0 0.0 0.0 0.0 0.0 0.0 0.0 0.0 0.0 0.0 0.0 0.0 0.0 0.0 0.0 0.0 0.0 0.0 0.0 0.0 0.0 0.0 0.0 0.0 0.0 0.0 0.0 0.6 0.0 0.0 0.0 0.0 0.0 0.0 0.0 0.0 0.0 0.0
0.0 0.0 0.0 0.0 0.0 0.0 0.0 0.0 0.0 0.0 0.0 0.0 0.0 0.0 0.0 0.0 0.0 0.0 0.0 0.0 0.0 0.0 0.2 0.0 0.0 0.0 0.0 0.0 0.0 0.0 0.0 0.0 0.0 1.3 0.0 2.1 0.0 0.0 0.0 0.0 0.4 0.2 0.0 0.0 0.0 0.0 0.0
0.0 0.0 0.0 0.0 0.0 0.0 0.0 0.0 0.0 0.0 0.0 0.0 0.0 0.0 0.0 0.0 0.0 0.0 0.0 0.0 0.0 0.0 2.8 0.0 0.0 0.0 0.0 0.0 0.0 0.0 0.0 0.0 0.0 0.0 0.0 0.2 0.0 0.0 0.0 1.2 0.0 1.4 0.0 0.0 0.0 0.1 0.2
0.0 0.0 0.0 0.0 0.0 0.0 0.0 0.0 0.0 0.0 0.0 0.0 0.0 0.0 0.0 0.0 0.0 0.0 0.0 0.0 0.0 0.0 80.0 0.0 0.0 0.0 0.0 0.0 0.0 0.0 0.0 0.0 0.9 0.0 0.1 1.9 0.0 0.1 0.2 0.4 0.0 0.3 0.0 0.0 0.0 0.2 0.3
0.0 0.0 0.0 0.0 0.0 0.0 0.0 0.0 0.0 0.0 0.0 0.0 0.0 0.0 0.0 0.0 0.0 0.0 0.0 0.0 0.0 32.6 73.9 0.0 0.0 0.0 0.0 0.0 0.0 0.0 0.0 0.0 0.0 0.1 0.0 3.3 0.0 0.2 0.0 0.0 0.0 0.0 0.0 0.0 0.0 1.0 2.8
0.0 0.0 0.0 0.0 0.0 0.0 0.0 0.0 0.0 0.0 0.0 0.0 0.0 0.0 0.0 0.0 0.0 0.0 0.0 0.0 36.0 80.7 0.0 0.0 0.0 0.0 0.0 0.0 0.0 0.0 0.0 0.6 3.0 11.7 5.9 0.0 0.3 0.0 0.0 0.0 0.0 0.3 2.1 7.9 5.4 5.7 4.7
0.0 0.0 0.0 0.0 0.0 0.0 0.0 0.0 0.0 0.0 0.0 0.0 0.0 0.0 0.0 0.0 0.0 0.0 0.0 11.8 88.5 1.2 0.0 0.0 0.0 0.0 0.2 0.1 0.0 0.5 0.6 1.9 2.1 3.1 4.9 3.6 2.9 0.0 0.0 0.2 0.0 0.0 1.7 9.7 14.3 3.6 0.8
0.0 0.0 0.0 0.0 0.0 0.0 0.0 0.0 0.0 0.0 0.0 0.0 0.0 0.0 0.0 0.0 0.0 0.0 5.1 73.4 30.6 0.0 0.5 0.3 0.0 0.1 0.1 0.0 0.9 1.1 2.1 3.1 2.7 4.1 12.6 7.3 1.7 0.0 0.0 0.0 0.0 0.5 4.8 0.0 6.4 2.1 1.2
0.0 0.0 0.0 0.0 0.0 0.0 0.0 0.0 0.0 0.0 0.0 0.0 0.0 0.0 0.0 0.0 0.0 0.0 21.1 31.1 3.3 0.0 0.0 0.0 1.0 0.5 0.5 0.2 0.6 2.0 7.0 4.0 3.0 3.0 5.7 4.5 5.9 0.0 0.0 0.0 0.0 0.6 0.2 9.5 8.8 26.2 12.6
0.0 0.0 0.0 0.0 0.0 0.0 0.0 0.0 0.0 0.0 0.0 0.0 0.0 3.0 0.0 0.0 0.0 7.4 64.9 12.8 1.1 0.0 0.0 0.1 0.6 0.2 0.1 1.4 0.4 2.2 4.5 1.9 1.4 2.1 0.8 5.7 9.5 0.1 0.5 1.1 2.4 2.0 6.3 6.6 11.4 9.9 13.0
0.0 0.0 0.0 0.0 0.0 0.0 0.0 0.0 0.0 0.0 0.0 0.0 0.0 24.3 0.0 0.0 23.7 27.1 30.9 1.3 0.0 0.0 0.0 0.0 0.1 0.1 0.5 0.6 1.3 3.0 5.3 1.0 0.0 0.2 4.0 4.9 13.9 4.4 1.0 0.7 0.9 0.5 3.2 3.6 34.8 22.2 11.5
0.0 0.0 0.0 0.0 0.0 0.0 0.0 0.0 0.0 0.0 0.0 0.0 6.6 8.0 0.0 0.0 44.4 29.1 0.8 0.5 0.1 0.1 0.0 0.1 0.5 0.2 0.0 0.0 1.8 0.4 0.1 0.0 0.0 0.0 2.6 3.0 9.1 12.3 1.0 2.6 3.3 8.1 9.8 12.8 14.4 10.9 13.9
0.0 0.0 0.0 0.0 0.0 0.0 0.0 0.0 0.0 0.0 0.0 0.0 5.3 63.3 13.1 0.0 1.0 5.3 7.4 5.2 4.0 0.4 0.1 0.0 0.5 0.4 0.3 1.8 0.4 0.3 0.1 0.0 0.0 0.0 0.0 0.1 7.8 13.0 18.0 14.4 10.7 17.7 9.2 9.1 14.3 27.1 11.2
0.0 0.0 0.0 0.0 0.0 0.0 0.0 0.0 0.0 0.0 0.0 0.0 13.1 36.9 0.3 44.3 31.2 5.2 3.3 3.4 2.5 2.7 0.0 0.1 0.9 0.2 1.9 4.3 2.8 1.9 0.3 0.2 0.0 0.0 0.2 1.5 14.7 9.4 5.8 2.2 1.6 3.4 3.3 3.4 11.7 7.4 12.2
0.0 0.0 0.0 0.0 0.0 0.0 0.0 0.0 0.0 0.0 0.0 0.0 48.3 23.3 1.7 3.0 0.7 3.2 4.0 6.8 2.0 0.5 1.8 1.3 2.4 1.0 1.1 5.0 2.8 5.6 2.1 0.1 0.6 0.0 0.2 1.1 10.7 4.8 5.2 0.9 0.6 1.5 0.8 2.6 3.3 2.4 0.9
0.0 0.0 0.0 0.0 0.0 0.0 0.0 0.0 0.0 0.0 0.0 10.0 1.6 0.0 5.0 5.1 4.6 10.6 5.7 1.9 1.2 0.2 0.0 0.0 0.0 1.0 2.2 1.2 0.3 0.7 0.6 0.6 0.0 2.2 2.6 7.4 11.8 12.7 11.8 1.6 3.8 14.4 2.7 1.7 7.7 2.3 2.7
0.0 0.0 0.0 0.0 0.0 0.0 0.0 0.0 0.0 0.0 0.0 1.9 0.0 0.2 18.2 26.4 5.9 2.9 0.2 0.4 0.3 0.1 1.6 0.1 0.0 0.7 0.3 0.0 0.0 0.5 0.7 0.5 0.2 0.1 0.8 6.1 8.7 11.8 17.2 6.4 31.8 2.9 0.0 0.0 0.6 2.9 2.6
0.0 0.0 0.0 0.0 0.0 0.0 0.0 0.0 0.0 0.0 0.0 0.0 0.0 0.5 14.7 26.5 3.7 2.2 1.1 0.7 1.0 0.0 1.4 1.1 0.7 0.0 0.0 0.2 10.0 20.1 15.4 11.2 4.9 1.3 0.3 0.1 4.0 17.6 25.5 12.4 3.8 1.0 0.1 0.0 0.3 1.6 0.2
0.0 0.0 0.0 0.0 0.0 0.0 0.0 0.0 0.0 0.0 0.0 0.0 0.0 0.0 7.1 23.7 7.8 0.2 3.5 1.4 4.8 5.4 6.9 3.1 0.0 0.0 0.0 10.1 30.5 30.8 19.8 7.4 9.8 2.8 0.5 0.3 0.2 9.0 16.5 23.7 13.1 1.0 0.0 0.0 0.0 4.1 0.3
0.0 0.0 0.0 0.0 0.0 0.0 0.0 0.0 0.0 0.0 0.0 0.0 0.0 0.0 2.0 29.0 1.1 0.2 3.6 3.9 2.1 3.8 7.8 3.6 4.4 4.5 2.4 23.0 35.3 19.6 11.0 1.3 8.5 7.9 6.7 8.5 8.9 27.5 15.1 16.1 2.7 0.3 0.0 0.0 4.0 4.5 0.7
0.0 0.0 0.0 0.0 0.0 0.0 0.0 0.0 0.0 0.0 0.0 0.0 0.0 0.0 0.2 17.9 5.2 0.0 0.0 1.8 4.1 5.3 17.5 8.5 12.4 13.1 20.8 38.4 28.1 20.8 12.5 3.7 4.9 2.5 2.4 3.6 14.7 21.2 22.0 32.4 19.8 0.1 0.0 1.2 0.7 0.1 0.6
0.0 0.0 0.0 0.0 0.0 0.0 0.0 0.0 0.0 0.0 0.0 0.0 0.5 0.0 0.0 12.6 11.1 0.0 0.0 0.0 0.0 0.0 3.8 8.5 12.5 8.0 7.9 24.7 15.7 13.2 16.6 11.2 2.8 10.4 2.7 9.9 5.8 12.3 9.6 10.8 1.0 0.0 0.3 0.2 0.2 0.4 1.1

GFSGBSN_prec_kuchsnow_255.txt.gz
Snowfall_Accumulation
0.0 0.0 0.0 0.0 0.0 0.0 0.0 0.0 0.0 0.0 0.0 0.0 0.0 0.0 0.0 0.0 0.0 0.0 0.0 0.0 0.0 0.0 0.0 0.0 0.0 0.0 0.0 0.0 0.0 0.0 0.0 0.0 0.0 0.0 0.0 0.0 0.0 0.0 0.0 0.0 0.0 0.0 0.0 0.0 0.0 0.0 0.0
0.0 0.0 0.0 0.0 0.0 0.0 0.0 0.0 0.0 0.0 0.0 0.0 0.0 0.0 0.0 0.0 0.0 0.0 0.0 0.0 0.0 0.0 0.0 0.0 0.0 0.0 0.0 0.0 0.0 0.0 0.0 0.0 0.0 0.0 0.0 0.0 0.0 0.0 0.0 0.0 0.0 0.0 0.0 0.0 0.0 0.0 0.0
0.0 0.0 0.0 0.0 0.0 0.0 0.0 0.0 0.0 0.0 0.0 0.0 0.0 0.0 0.0 0.0 0.0 0.0 0.0 0.0 0.0 0.0 0.0 0.0 0.0 0.0 0.0 0.0 0.0 0.0 0.0 0.0 0.0 0.0 0.0 0.0 0.0 0.0 0.0 0.0 0.0 0.0 0.0 0.0 0.0 0.0 0.0
0.0 0.0 0.0 0.0 0.0 0.0 0.0 0.0 0.0 0.0 0.0 0.0 0.0 0.0 0.0 0.0 0.0 0.0 0.0 0.0 0.0 0.0 0.0 0.0 0.0 0.0 0.0 0.0 0.0 0.0 0.0 0.0 0.0 0.0 0.0 0.0 0.0 0.0 0.0 0.0 0.0 0.0 0.0 0.0 0.0 0.0 0.0
0.0 0.0 0.0 0.0 0.0 0.0 0.0 0.0 0.0 0.0 0.0 0.0 0.0 0.0 0.0 0.0 0.0 0.0 0.0 0.0 0.0 0.0 0.0 0.0 0.0 0.0 0.0 0.0 0.0 0.0 0.0 0.0 0.0 0.0 0.0 0.0 0.0 0.0 0.0 0.0 0.0 0.0 0.0 0.0 0.0 0.0 0.0
0.0 0.0 0.0 0.0 0.0 0.0 0.0 0.0 0.0 0.0 0.0 0.0 0.0 0.0 0.0 0.0 0.0 0.0 0.0 0.0 0.0 0.0 0.0 0.0 0.0 0.1 0.0 0.0 0.0 0.0 0.0 0.0 0.0 0.0 0.0 0.0 0.0 0.0 0.0 0.0 0.0 0.0 0.0 0.0 0.0 0.0 0.0
0.0 0.0 0.0 0.0 0.0 0.0 0.0 0.0 0.0 0.0 0.0 0.0 0.0 0.0 0.0 0.0 0.0 0.0 0.0 0.0 0.0 0.0 0.0 0.0 0.0 0.0 0.0 0.0 0.0 0.0 0.0 0.0 0.0 0.0 0.0 0.0 0.0 0.0 0.0 0.0 0.0 0.0 0.0 0.0 0.0 0.0 0.0
0.0 0.0 0.0 0.0 0.0 0.0 0.0 0.0 0.0 0.0 0.0 0.0 0.0 0.0 0.0 0.0 0.0 0.0 0.0 0.0 0.0 0.0 0.0 0.0 0.0 0.0 0.0 0.0 0.0 0.0 0.0 0.0 0.0 0.0 0.0 0.0 0.6 0.0 0.0 0.0 0.0 0.0 0.0 0.0 0.0 0.0 0.0
0.0 0.0 0.0 0.0 0.0 0.0 0.0 0.0 0.0 0.0 0.0 0.0 0.0 0.0 0.0 0.0 0.0 0.0 0.0 0.0 0.0 0.0 0.2 0.0 0.0 0.0 0.0 0.0 0.0 0.0 0.0 0.0 0.0 1.3 0.0 2.1 0.0 0.0 0.0 0.0 0.4 0.2 0.0 0.0 0.0 0.0 0.0
0.0 0.0 0.0 0.0 0.0 0.0 0.0 0.0 0.0 0.0 0.0 0.0 0.0 0.0 0.0 0.0 0.0 0.0 0.0 0.0 0.0 0.0 2.8 0.0 0.0 0.0 0.0 0.0 0.0 0.0 0.0 0.0 0.0 0.0 0.0 0.2 0.0 0.0 0.0 1.2 0.0 1.4 0.0 0.0 0.0 0.1 0.2
0.0 0.0 0.0 0.0 0.0 0.0 0.0 0.0 0.0 0.0 0.0 0.0 0.0 0.0 0.0 0.0 0.0 0.0 0.0 0.0 0.0 0.0 80.0 0.0 0.0 0.0 0.0 0.0 0.0 0.0 0.0 0.0 0.9 0.0 0.1 1.9 0.0 0.1 0.2 0.4 0.0 0.3 0.0 0.0 0.0 0.2 0.3
0.0 0.0 0.0 0.0 0.0 0.0 0.0 0.0 0.0 0.0 0.0 0.0 0.0 0.0 0.0 0.0 0.0 0.0 0.0 0.0 0.0 32.6 73.9 0.0 0.0 0.0 0.0 0.0 0.0 0.0 0.0 0.0 0.0 0.1 0.0 3.3 0.0 0.2 0.0 0.0 0.0 0.0 0.0 0.0 0.0 1.1 3.2
0.0 0.0 0.0 0.0 0.0 0.0 0.0 0.0 0.0 0.0 0.0 0.0 0.0 0.0 0.0 0.0 0.0 0.0 0.0 0.0 36.0 80.7 0.0 0.0 0.0 0.0 0.0 0.0 0.0 0.0 0.0 0.6 3.0 11.7 5.9 0.0 0.3 0.0 0.0 0.0 0.0 0.3 2.4 8.4 5.7 6.1 4.7
0.0 0.0 0.0 0.0 0.0 0.0 0.0 0.0 0.0 0.0 0.0 0.0 0.0 0.0 0.0 0.0 0.0 0.0 0.0 11.8 88.5 1.2 0.0 0.0 0.0 0.0 0.2 0.1 0.0 0.5 0.6 1.9 2.1 3.1 5.0 3.6 2.9 0.0 0.0 0.2 0.0 0.0 2.0 10.6 14.6 3.6 0.8
0.0 0.0 0.0 0.0 0.0 0.0 0.0 0.0 0.0 0.0 0.0 0.0 0.0 0.0 0.0 0.0 0.0 0.0 5.1 73.4 30.6 0.0 0.5 0.3 0.0 0.1 0.1 0.0 0.9 1.1 2.1 3.1 2.9 4.1 14.0 8.2 1.7 0.0 0.0 0.0 0.0 0.5 5.3 0.0 8.0 2.1 1.4
0.0 0.0 0.0 0.0 0.0 0.0 0.0 0.0 0.0 0.0 0.0 0.0 0.0 0.0 0.0 0.0 0.0 0.0 21.1 31.1 3.3 0.0 0.0 0.0 1.0 0.5 0.5 0.2 0.6 2.0 7.0 4.0 3.0 3.0 5.7 4.5 5.9 0.0 0.0 0.0 0.0 0.6 0.2 10.7 11.0 28.6 13.1
0.0 0.0 0.0 0.0 0.0 0.0 0.0 0.0 0.0 0.0 0.0 0.0 0.0 3.0 0.0 0.0 0.0 7.4 64.9 12.8 1.1 0.0 0.0 0.1 0.6 0.2 0.1 1.4 0.4 2.2 4.5 1.9 1.4 2.1 0.8 5.7 10.1 0.1 0.5 1.1 2.4 2.0 6.6 7.4 12.2 11.3 15.3
0.0 0.0 0.0 0.0 0.0 0.0 0.0 0.0 0.0 0.0 0.0 0.0 0.0 24.3 0.0 0.0 23.7 27.1 30.9 1.3 0.0 0.0 0.0 0.0 0.1 0.1 0.5 0.6 1.3 3.0 5.3 1.0 0.0 0.2 4.0 4.9 13.9 4.8 1.0 0.7 0.9 0.5 3.3 4.0 35.8 23.0 12.7
0.0 0.0 0.0 0.0 0.0 0.0 0.0 0.0 0.0 0.0 0.0 0.0 6.6 8.0 0.0 0.0 44.4 29.1 0.8 0.5 0.1 0.1 0.0 0.1 0.5 0.2 0.0 0.0 1.8 0.4 0.1 0.0 0.0 0.0 2.6 3.0 9.6 12.3 1.0 2.6 3.3 8.1 9.8 12.8 14.6 11.3 13.9
0.0 0.0 0.0 0.0 0.0 0.0 0.0 0.0 0.0 0.0 0.0 0.0 5.3 63.3 13.1 0.0 1.0 5.3 7.4 5.2 4.0 0.4 0.1 0.0 0.5 0.4 0.3 1.8 0.4 0.3 0.1 0.0 0.0 0.0 0.0 0.1 8.0 13.4 18.6 14.4 10.7 17.7 9.2 9.1 14.5 27.5 11.4
0.0 0.0 0.0 0.0 0.0 0.0 0.0 0.0 0.0 0.0 0.0 0.0 13.1 36.9 0.3 44.3 31.2 5.2 3.3 3.4 2.5 2.7 0.0 0.1 0.9 0.2 1.9 4.3 2.8 1.9 0.3 0.2 0.0 0.0 0.2 1.6 14.8 9.4 5.8 2.2 1.6 3.4 3.3 3.4 11.7 7.4 12.2
0.0 0.0 0.0 0.0 0.0 0.0 0.0 0.0 0.0 0.0 0.0 0.0 48.3 23.3 1.7 3.0 0.7 3.2 4.0 6.8 2.0 0.5 1.8 1.3 2.4 1.0 1.1 5.1 2.8 5.6 2.1 0.1 0.6 0.0 0.2 1.1 10.7 4.8 5.2 0.9 0.6 1.5 0.8 2.6 3.3 2.4 0.9
0.0 0.0 0.0 0.0 0.0 0.0 0.0 0.0 0.0 0.0 0.0 10.0 1.6 0.0 5.0 5.1 4.6 10.6 5.7 1.9 1.2 0.2 0.0 0.0 0.1 1.0 2.2 1.2 0.3 0.7 0.6 0.6 0.0 2.2 2.6 7.4 11.8 12.7 11.8 1.6 3.8 14.4 2.7 1.7 7.7 2.3 2.7
0.0 0.0 0.0 0.0 0.0 0.0 0.0 0.0 0.0 0.0 0.0 1.9 0.0 0.2 18.3 26.4 5.9 2.9 0.2 0.4 0.3 0.1 1.6 0.1 0.0 0.7 0.3 0.0 0.0 0.5 0.7 0.5 0.2 0.1 0.8 6.1 8.8 12.1 17.2 6.4 31.8 2.9 0.0 0.0 0.6 2.9 2.7
0.0 0.0 0.0 0.0 0.0 0.0 0.0 0.0 0.0 0.0 0.0 0.0 0.0 0.5 14.9 26.7 3.7 2.2 1.1 0.7 1.0 0.0 1.4 1.1 0.7 0.0 0.0 0.2 10.0 20.1 15.4 11.2 4.9 1.3 0.3 0.2 4.2 17.9 25.5 12.4 3.8 1.0 0.2 0.0 0.3 1.6 0.2
0.0 0.0 0.0 0.0 0.0 0.0 0.0 0.0 0.0 0.0 0.0 0.0 0.0 0.0 7.3 24.0 7.8 0.2 3.5 1.4 4.8 5.4 6.9 3.1 0.0 0.0 0.0 10.1 30.5 30.8 19.8 7.4 9.8 2.8 0.5 0.3 0.2 9.0 16.5 23.9 13.1 1.0 0.0 0.0 0.0 4.3 0.3
0.0 0.0 0.0 0.0 0.0 0.0 0.0 0.0 0.0 0.0 0.0 0.0 0.0 0.0 2.2 29.6 1.1 0.2 3.6 3.9 2.1 3.8 7.9 3.6 4.4 4.5 2.5 23.0 35.4 19.6 11.0 1.3 8.7 7.9 6.7 8.5 10.2 27.8 15.1 16.1 2.7 0.3 0.0 0.0 4.3 4.7 0.7
0.0 0.0 0.0 0.0 0.0 0.0 0.0 0.0 0.0 0.0 0.0 0.0 0.0 0.0 0.2 18.3 5.2 0.0 0.0 1.8 4.1 5.4 17.6 8.5 12.4 13.1 20.8 38.4 28.1 20.8 12.6 3.7 4.9 2.5 2.4 3.6 15.3 21.7 22.3 32.7 19.8 0.1 0.0 1.2 0.7 0.1 0.6
0.0 0.0 0.0 0.0 0.0 0.0 0.0 0.0 0.0 0.0 0.0 0.0 0.5 0.0 0.0 12.7 11.1 0.0 0.0 0.0 0.0 0.0 3.8 8.7 12.5 8.0 7.9 24.9 15.9 13.2 16.6 11.2 2.8 10.4 2.7 9.9 5.8 12.9 10.9 11.2 1.0 0.0 0.3 0.2 0.2 0.4 1.1

GFSGBSN_prec_kuchsnow_258.txt.gz
Snowfall_Accumulation
0.0 0.0 0.0 0.0 0.0 0.0 0.0 0.0 0.0 0.0 0.0 0.0 0.0 0.0 0.0 0.0 0.0 0.0 0.0 0.0 0.0 0.0 0.0 0.0 0.0 0.0 0.0 0.0 0.0 0.0 0.0 0.0 0.0 0.0 0.0 0.0 0.0 0.0 0.0 0.0 0.0 0.0 0.0 0.0 0.0 0.0 0.0
0.0 0.0 0.0 0.0 0.0 0.0 0.0 0.0 0.0 0.0 0.0 0.0 0.0 0.0 0.0 0.0 0.0 0.0 0.0 0.0 0.0 0.0 0.0 0.0 0.0 0.0 0.0 0.0 0.0 0.0 0.0 0.0 0.0 0.0 0.0 0.0 0.0 0.0 0.0 0.0 0.0 0.0 0.0 0.0 0.0 0.0 0.0
0.0 0.0 0.0 0.0 0.0 0.0 0.0 0.0 0.0 0.0 0.0 0.0 0.0 0.0 0.0 0.0 0.0 0.0 0.0 0.0 0.0 0.0 0.0 0.0 0.0 0.0 0.0 0.0 0.0 0.0 0.0 0.0 0.0 0.0 0.0 0.0 0.0 0.0 0.0 0.0 0.0 0.0 0.0 0.0 0.0 0.0 0.0
0.0 0.0 0.0 0.0 0.0 0.0 0.0 0.0 0.0 0.0 0.0 0.0 0.0 0.0 0.0 0.0 0.0 0.0 0.0 0.0 0.0 0.0 0.0 0.0 0.0 0.0 0.0 0.0 0.0 0.0 0.0 0.0 0.0 0.0 0.0 0.0 0.0 0.0 0.0 0.0 0.0 0.0 0.0 0.0 0.0 0.0 0.0
0.0 0.0 0.0 0.0 0.0 0.0 0.0 0.0 0.0 0.0 0.0 0.0 0.0 0.0 0.0 0.0 0.0 0.0 0.0 0.0 0.0 0.0 0.0 0.0 0.0 0.0 0.0 0.0 0.0 0.0 0.0 0.0 0.0 0.0 0.0 0.0 0.0 0.0 0.0 0.0 0.0 0.0 0.0 0.0 0.0 0.0 0.0
0.0 0.0 0.0 0.0 0.0 0.0 0.0 0.0 0.0 0.0 0.0 0.0 0.0 0.0 0.0 0.0 0.0 0.0 0.0 0.0 0.0 0.0 0.0 0.0 0.0 0.1 0.0 0.0 0.0 0.0 0.0 0.0 0.0 0.0 0.0 0.0 0.0 0.0 0.0 0.0 0.0 0.0 0.0 0.0 0.0 0.0 0.0
0.0 0.0 0.0 0.0 0.0 0.0 0.0 0.0 0.0 0.0 0.0 0.0 0.0 0.0 0.0 0.0 0.0 0.0 0.0 0.0 0.0 0.0 0.0 0.0 0.0 0.0 0.0 0.0 0.0 0.0 0.0 0.0 0.0 0.0 0.0 0.0 0.0 0.0 0.0 0.0 0.0 0.0 0.0 0.0 0.0 0.0 0.0
0.0 0.0 0.0 0.0 0.0 0.0 0.0 0.0 0.0 0.0 0.0 0.0 0.0 0.0 0.0 0.0 0.0 0.0 0.0 0.0 0.0 0.0 0.0 0.0 0.0 0.0 0.0 0.0 0.0 0.0 0.0 0.0 0.0 0.0 0.0 0.0 0.6 0.0 0.0 0.0 0.0 0.0 0.0 0.0 0.0 0.0 0.0
0.0 0.0 0.0 0.0 0.0 0.0 0.0 0.0 0.0 0.0 0.0 0.0 0.0 0.0 0.0 0.0 0.0 0.0 0.0 0.0 0.0 0.0 0.2 0.0 0.0 0.0 0.0 0.0 0.0 0.0 0.0 0.0 0.0 1.3 0.0 2.1 0.0 0.0 0.0 0.0 0.4 0.2 0.0 0.0 0.0 0.0 0.0
0.0 0.0 0.0 0.0 0.0 0.0 0.0 0.0 0.0 0.0 0.0 0.0 0.0 0.0 0.0 0.0 0.0 0.0 0.0 0.0 0.0 0.0 2.8 0.0 0.0 0.0 0.0 0.0 0.0 0.0 0.0 0.0 0.0 0.0 0.0 0.2 0.0 0.0 0.0 1.2 0.0 1.4 0.0 0.0 0.0 0.1 0.2
0.0 0.0 0.0 0.0 0.0 0.0 0.0 0.0 0.0 0.0 0.0 0.0 0.0 0.0 0.0 0.0 0.0 0.0 0.0 0.0 0.0 0.0 80.0 0.0 0.0 0.0 0.0 0.0 0.0 0.0 0.0 0.0 0.9 0.0 0.1 1.9 0.0 0.1 0.2 0.4 0.0 0.3 0.0 0.0 0.0 0.2 0.3
0.0 0.0 0.0 0.0 0.0 0.0 0.0 0.0 0.0 0.0 0.0 0.0 0.0 0.0 0.0 0.0 0.0 0.0 0.0 0.0 0.0 32.6 73.9 0.0 0.0 0.0 0.0 0.0 0.0 0.0 0.0 0.0 0.0 0.1 0.0 3.3 0.0 0.2 0.0 0.0 0.0 0.0 0.0 0.0 0.0 1.1 3.4
0.0 0.0 0.0 0.0 0.0 0.0 0.0 0.0 0.0 0.0 0.0 0.0 0.0 0.0 0.0 0.0 0.0 0.0 0.0 0.0 36.0 80.7 0.0 0.0 0.0 0.0 0.0 0.0 0.0 0.0 0.0 0.6 3.0 11.8 5.9 0.0 0.3 0.0 0.0 0.0 0.0 0.3 2.4 8.8 6.0 6.4 4.7
0.0 0.0 0.0 0.0 0.0 0.0 0.0 0.0 0.0 0.0 0.0 0.0 0.0 0.0 0.0 0.0 0.0 0.0 0.0 11.8 88.5 1.2 0.0 0.0 0.0 0.0 0.2 0.1 0.0 0.5 0.6 1.9 2.1 3.1 5.0 3.8 3.1 0.0 0.0 0.2 0.0 0.0 2.0 11.4 16.1 3.7 0.8
0.0 0.0 0.0 0.0 0.0 0.0 0.0 0.0 0.0 0.0 0.0 0.0 0.0 0.0 0.0 0.0 0.0 0.0 5.1 73.4 30.6 0.0 0.5 0.3 0.0 0.1 0.1 0.0 0.9 1.1 2.1 3.1 2.9 4.1 14.2 8.6 1.7 0.0 0.0 0.0 0.0 0.5 5.4 0.0 9.5 2.2 1.7
0.0 0.0 0.0 0.0 0.0 0.0 0.0 0.0 0.0 0.0 0.0 0.0 0.0 0.0 0.0 0.0 0.0 0.0 21.1 31.1 3.3 0.0 0.0 0.0 1.0 0.5 0.5 0.2 0.6 2.0 7.0 4.0 3.0 3.0 5.7 4.5 5.9 0.0 0.0 0.0 0.0 0.6 0.2 10.7 11.7 29.8 13.1
0.0 0.0 0.0 0.0 0.0 0.0 0.0 0.0 0.0 0.0 0.0 0.0 0.0 3.0 0.0 0.0 0.0 7.4 64.9 12.8 1.1 0.0 0.0 0.1 0.6 0.2 0.1 1.4 0.4 2.2 4.5 1.9 1.4 2.1 0.8 5.7 10.2 0.1 0.5 1.1 2.4 2.0 7.0 7.4 12.7 11.7 16.2
0.0 0.0 0.0 0.0 0.0 0.0 0.0 0.0 0.0 0.0 0.0 0.0 0.0 24.3 0.0 0.0 23.7 27.1 30.9 1.3 0.0 0.0 0.0 0.0 0.1 0.1 0.5 0.6 1.3 3.0 5.3 1.0 0.0 0.2 4.0 4.9 13.9 4.8 1.0 0.7 0.9 0.5 3.4 4.0 36.9 23.6 13.0
0.0 0.0 0.0 0.0 0.0 0.0 0.0 0.0 0.0 0.0 0.0 0.0 6.6 8.0 0.0 0.0 44.4 29.1 0.8 0.5 0.1 0.1 0.0 0.1 0.5 0.2 0.0 0.0 1.8 0.4 0.1 0.0 0.0 0.0 2.6 3.0 9.8 12.3 1.0 2.6 3.3 8.1 9.8 12.8 14.6 11.3 14.2
0.0 0.0 0.0 0.0 0.0 0.0 0.0 0.0 0.0 0.0 0.0 0.0 5.3 63.3 13.1 0.0 1.0 5.3 7.4 5.2 4.0 0.4 0.1 0.0 0.5 0.4 0.3 1.8 0.4 0.3 0.1 0.0 0.0 0.0 0.0 0.1 8.2 13.7 18.8 14.4 10.7 17.7 9.2 9.1 14.5 27.7 11.5
0.0 0.0 0.0 0.0 0.0 0.0 0.0 0.0 0.0 0.0 0.0 0.0 13.1 36.9 0.3 44.3 31.2 5.2 3.3 3.4 2.5 2.7 0.0 0.1 0.9 0.2 1.9 4.3 2.8 1.9 0.3 0.2 0.0 0.0 0.2 1.6 15.0 9.5 5.8 2.2 1.6 3.4 3.3 3.4 11.7 7.4 12.5
0.0 0.0 0.0 0.0 0.0 0.0 0.0 0.0 0.0 0.0 0.0 0.0 48.3 23.3 1.7 3.0 0.7 3.2 4.0 6.8 2.0 0.5 1.8 1.3 2.4 1.0 1.1 5.2 2.9 5.7 2.2 0.1 0.6 0.0 0.2 1.1 10.9 4.8 5.3 0.9 0.6 1.5 0.8 2.6 3.3 2.4 1.0
0.0 0.0 0.0 0.0 0.0 0.0 0.0 0.0 0.0 0.0 0.0 10.0 1.6 0.0 5.0 5.1 4.6 10.6 5.7 1.9 1.2 0.2 0.0 0.0 0.1 1.0 2.2 1.2 0.3 0.7 0.6 0.6 0.0 2.2 2.6 7.5 12.0 13.0 12.1 1.6 3.8 14.4 2.7 1.7 7.7 2.3 2.7
0.0 0.0 0.0 0.0 0.0 0.0 0.0 0.0 0.0 0.0 0.0 1.9 0.0 0.2 18.3 26.4 5.9 2.9 0.2 0.4 0.3 0.1 1.6 0.1 0.0 0.7 0.3 0.0 0.0 0.5 0.7 0.5 0.2 0.1 0.8 6.1 8.8 13.3 17.6 6.5 31.9 2.9 0.0 0.0 0.6 2.9 2.7
0.0 0.0 0.0 0.0 0.0 0.0 0.0 0.0 0.0 0.0 0.0 0.0 0.0 0.5 14.9 26.7 3.7 2.2 1.1 0.7 1.0 0.0 1.4 1.1 0.7 0.0 0.0 0.2 10.0 20.1 15.4 11.2 4.9 1.3 0.3 0.2 4.8 19.0 25.8 12.5 3.8 1.0 0.2 0.0 0.3 1.6 0.2
0.0 0.0 0.0 0.0 0.0 0.0 0.0 0.0 0.0 0.0 0.0 0.0 0.0 0.0 7.4 24.1 7.8 0.2 3.5 1.4 4.8 5.4 6.9 3.1 0.0 0.0 0.0 10.1 30.6 30.8 19.8 7.4 9.8 2.8 0.5 0.3 0.2 9.1 16.6 24.0 13.2 1.2 0.0 0.0 0.0 4.5 0.3
0.0 0.0 0.0 0.0 0.0 0.0 0.0 0.0 0.0 0.0 0.0 0.0 0.0 0.0 2.2 29.9 1.1 0.2 3.6 3.9 2.1 3.8 7.9 3.6 4.4 4.5 2.5 23.1 35.6 19.6 11.0 1.3 8.7 7.9 6.7 8.5 10.5 28.1 15.4 16.3 2.7 0.3 0.0 0.0 4.4 4.7 0.7
0.0 0.0 0.0 0.0 0.0 0.0 0.0 0.0 0.0 0.0 0.0 0.0 0.0 0.0 0.2 18.4 5.2 0.0 0.0 1.8 4.1 5.4 17.8 8.6 12.4 13.1 20.9 38.4 28.2 20.8 12.7 3.7 4.9 2.5 2.4 3.6 15.9 22.8 23.0 33.1 20.1 0.1 0.0 1.2 0.7 0.1 0.6
0.0 0.0 0.0 0.0 0.0 0.0 0.0 0.0 0.0 0.0 0.0 0.0 0.5 0.0 0.0 12.7 11.1 0.0 0.0 0.0 0.0 0.0 3.8 8.8 12.5 8.0 7.9 25.0 16.0 13.2 16.7 11.2 2.8 10.4 2.7 9.9 5.9 13.0 11.1 11.4 1.0 0.0 0.3 0.2 0.2 0.4 1.1

GFSGBSN_prec_kuchsnow_264.txt.gz
Snowfall_Accumulation
0.0 0.0 0.0 0.0 0.0 0.0 0.0 0.0 0.0 0.0 0.0 0.0 0.0 0.0 0.0 0.0 0.0 0.0 0.0 0.0 0.0 0.0 0.0 0.0 0.0 0.0 0.0 0.0 0.0 0.0 0.0 0.0 0.0 0.0 0.0 0.0 0.0 0.0 0.0 0.0 0.0 0.0 0.0 0.0 0.0 0.0 0.0
0.0 0.0 0.0 0.0 0.0 0.0 0.0 0.0 0.0 0.0 0.0 0.0 0.0 0.0 0.0 0.0 0.0 0.0 0.0 0.0 0.0 0.0 0.0 0.0 0.0 0.0 0.0 0.0 0.0 0.0 0.0 0.0 0.0 0.0 0.0 0.0 0.0 0.0 0.0 0.0 0.0 0.0 0.0 0.0 0.0 0.0 0.0
0.0 0.0 0.0 0.0 0.0 0.0 0.0 0.0 0.0 0.0 0.0 0.0 0.0 0.0 0.0 0.0 0.0 0.0 0.0 0.0 0.0 0.0 0.0 0.0 0.0 0.0 0.0 0.0 0.0 0.0 0.0 0.0 0.0 0.0 0.0 0.0 0.0 0.0 0.0 0.0 0.0 0.0 0.0 0.0 0.0 0.0 0.0
0.0 0.0 0.0 0.0 0.0 0.0 0.0 0.0 0.0 0.0 0.0 0.0 0.0 0.0 0.0 0.0 0.0 0.0 0.0 0.0 0.0 0.0 0.0 0.0 0.0 0.0 0.0 0.0 0.0 0.0 0.0 0.0 0.0 0.0 0.0 0.0 0.0 0.0 0.0 0.0 0.0 0.0 0.0 0.0 0.0 0.0 0.0
0.0 0.0 0.0 0.0 0.0 0.0 0.0 0.0 0.0 0.0 0.0 0.0 0.0 0.0 0.0 0.0 0.0 0.0 0.0 0.0 0.0 0.0 0.0 0.0 0.0 0.0 0.0 0.0 0.0 0.0 0.0 0.0 0.0 0.0 0.0 0.0 0.0 0.0 0.0 0.0 0.0 0.0 0.0 0.0 0.0 0.0 0.0
0.0 0.0 0.0 0.0 0.0 0.0 0.0 0.0 0.0 0.0 0.0 0.0 0.0 0.0 0.0 0.0 0.0 0.0 0.0 0.0 0.0 0.0 0.0 0.0 0.0 0.1 0.0 0.0 0.0 0.0 0.0 0.0 0.0 0.0 0.0 0.0 0.0 0.0 0.0 0.0 0.0 0.0 0.0 0.0 0.0 0.0 0.0
0.0 0.0 0.0 0.0 0.0 0.0 0.0 0.0 0.0 0.0 0.0 0.0 0.0 0.0 0.0 0.0 0.0 0.0 0.0 0.0 0.0 0.0 0.0 0.0 0.0 0.0 0.0 0.0 0.0 0.0 0.0 0.0 0.0 0.0 0.0 0.0 0.0 0.0 0.0 0.0 0.0 0.0 0.0 0.0 0.0 0.0 0.0
0.0 0.0 0.0 0.0 0.0 0.0 0.0 0.0 0.0 0.0 0.0 0.0 0.0 0.0 0.0 0.0 0.0 0.0 0.0 0.0 0.0 0.0 0.0 0.0 0.0 0.0 0.0 0.0 0.0 0.0 0.0 0.0 0.0 0.0 0.0 0.0 0.6 0.0 0.0 0.0 0.0 0.0 0.0 0.0 0.0 0.0 0.0
0.0 0.0 0.0 0.0 0.0 0.0 0.0 0.0 0.0 0.0 0.0 0.0 0.0 0.0 0.0 0.0 0.0 0.0 0.0 0.0 0.0 0.0 0.2 0.0 0.0 0.0 0.0 0.0 0.0 0.0 0.0 0.0 0.0 1.3 0.0 2.1 0.0 0.0 0.0 0.0 0.4 0.2 0.0 0.0 0.0 0.0 0.0
0.0 0.0 0.0 0.0 0.0 0.0 0.0 0.0 0.0 0.0 0.0 0.0 0.0 0.0 0.0 0.0 0.0 0.0 0.0 0.0 0.0 0.0 2.8 0.0 0.0 0.0 0.0 0.0 0.0 0.0 0.0 0.0 0.0 0.0 0.0 0.2 0.0 0.0 0.0 1.2 0.0 1.4 0.0 0.0 0.0 0.1 0.2
0.0 0.0 0.0 0.0 0.0 0.0 0.0 0.0 0.0 0.0 0.0 0.0 0.0 0.0 0.0 0.0 0.0 0.0 0.0 0.0 0.0 0.0 80.0 0.0 0.0 0.0 0.0 0.0 0.0 0.0 0.0 0.0 0.9 0.0 0.1 1.9 0.0 0.1 0.2 0.4 0.0 0.3 0.0 0.0 0.0 0.2 0.3
0.0 0.0 0.0 0.0 0.0 0.0 0.0 0.0 0.0 0.0 0.0 0.0 0.0 0.0 0.0 0.0 0.0 0.0 0.0 0.0 0.0 32.6 73.9 0.0 0.0 0.0 0.0 0.0 0.0 0.0 0.0 0.0 0.0 0.1 0.0 3.3 0.0 0.2 0.0 0.0 0.0 0.0 0.0 0.0 0.0 1.1 3.6
0.0 0.0 0.0 0.0 0.0 0.0 0.0 0.0 0.0 0.0 0.0 0.0 0.0 0.0 0.0 0.0 0.0 0.0 0.0 0.0 36.0 80.7 0.0 0.0 0.0 0.0 0.0 0.0 0.0 0.0 0.0 0.6 3.0 11.9 5.9 0.0 0.3 0.0 0.0 0.0 0.0 0.3 2.6 9.9 6.3 7.1 5.9
0.0 0.0 0.0 0.0 0.0 0.0 0.0 0.0 0.0 0.0 0.0 0.0 0.0 0.0 0.0 0.0 0.0 0.0 0.0 11.8 88.5 1.2 0.0 0.0 0.0 0.0 0.2 0.1 0.0 0.5 0.6 1.9 2.1 3.1 5.0 3.8 3.3 0.1 0.0 0.2 0.0 0.0 2.0 13.8 19.8 4.8 0.8
0.0 0.0 0.0 0.0 0.0 0.0 0.0 0.0 0.0 0.0 0.0 0.0 0.0 0.0 0.0 0.0 0.0 0.0 5.1 73.4 30.6 0.0 0.5 0.3 0.0 0.1 0.1 0.0 0.9 1.1 2.1 3.1 2.9 4.1 14.2 8.6 1.7 0.0 0.0 0.0 0.0 0.5 5.6 0.0 10.6 2.4 1.9
0.0 0.0 0.0 0.0 0.0 0.0 0.0 0.0 0.0 0.0 0.0 0.0 0.0 0.0 0.0 0.0 0.0 0.0 21.1 31.1 3.3 0.0 0.0 0.0 1.0 0.5 0.5 0.2 0.6 2.0 7.0 4.0 3.0 3.0 5.7 4.5 5.9 0.0 0.0 0.0 0.0 0.6 0.2 10.7 12.7 32.1 13.9
0.0 0.0 0.0 0.0 0.0 0.0 0.0 0.0 0.0 0.0 0.0 0.0 0.0 3.0 0.0 0.0 0.0 7.4 64.9 12.8 1.1 0.0 0.0 0.1 0.6 0.2 0.1 1.4 0.4 2.2 4.5 1.9 1.4 2.1 0.8 5.7 10.3 0.1 0.5 1.1 2.4 2.0 7.3 8.1 13.3 12.1 18.6
0.0 0.0 0.0 0.0 0.0 0.0 0.0 0.0 0.0 0.0 0.0 0.0 0.0 24.3 0.0 0.0 23.7 27.1 30.9 1.3 0.0 0.0 0.0 0.0 0.1 0.1 0.5 0.6 1.3 3.0 5.3 1.0 0.0 0.2 4.0 4.9 13.9 4.8 1.0 0.7 0.9 0.5 3.8 4.3 37.4 24.4 13.0
0.0 0.0 0.0 0.0 0.0 0.0 0.0 0.0 0.0 0.0 0.0 0.0 6.6 8.0 0.0 0.0 44.4 29.1 0.8 0.5 0.1 0.1 0.0 0.1 0.5 0.2 0.0 0.0 1.8 0.4 0.1 0.0 0.0 0.0 2.6 3.0 9.9 12.6 1.0 2.6 3.3 8.2 9.8 12.9 14.7 11.3 14.4
0.0 0.0 0.0 0.0 0.0 0.0 0.0 0.0 0.0 0.0 0.0 0.0 5.3 63.3 13.1 0.0 1.0 5.3 7.4 5.2 4.0 0.4 0.1 0.0 0.5 0.4 0.3 1.8 0.4 0.3 0.1 0.0 0.0 0.0 0.0 0.1 8.3 14.3 19.5 14.6 10.7 17.7 9.2 9.1 14.5 27.8 11.5
0.0 0.0 0.0 0.0 0.0 0.0 0.0 0.0 0.0 0.0 0.0 0.0 13.1 36.9 0.3 44.3 31.2 5.2 3.3 3.4 2.5 2.7 0.0 0.1 0.9 0.2 1.9 4.3 2.8 1.9 0.3 0.2 0.0 0.0 0.2 1.6 15.4 9.8 5.9 2.2 1.6 3.4 3.3 3.4 11.7 7.4 12.5
0.0 0.0 0.0 0.0 0.0 0.0 0.0 0.0 0.0 0.0 0.0 0.0 48.3 23.3 1.7 3.0 0.7 3.2 4.0 6.8 2.0 0.5 1.8 1.3 2.4 1.0 1.1 5.2 2.9 5.7 2.2 0.1 0.6 0.0 0.2 1.1 10.9 5.0 5.3 0.9 0.6 1.6 0.8 2.6 3.3 2.4 1.0
0.0 0.0 0.0 0.0 0.0 0.0 0.0 0.0 0.0 0.0 0.0 10.0 1.6 0.0 5.0 5.1 4.6 10.6 5.7 1.9 1.2 0.2 0.0 0.0 0.1 1.0 2.2 1.2 0.3 0.7 0.6 0.6 0.0 2.2 2.6 7.5 12.1 13.7 12.7 1.7 3.9 14.5 2.7 1.7 7.7 2.3 2.7
0.0 0.0 0.0 0.0 0.0 0.0 0.0 0.0 0.0 0.0 0.0 1.9 0.0 0.2 18.3 26.4 5.9 2.9 0.2 0.4 0.3 0.1 1.6 0.1 0.0 0.7 0.3 0.0 0.0 0.5 0.7 0.5 0.2 0.1 0.8 6.1 8.9 13.9 18.8 7.2 32.9 2.9 0.0 0.0 1.2 3.2 3.2
0.0 0.0 0.0 0.0 0.0 0.0 0.0 0.0 0.0 0.0 0.0 0.0 0.0 0.5 14.9 26.8 3.7 2.2 1.1 0.7 1.0 0.0 1.4 1.1 0.7 0.0 0.0 0.2 10.0 20.1 15.4 11.2 4.9 1.3 0.3 0.2 4.9 21.3 26.9 12.9 3.8 1.0 0.2 0.1 0.3 1.7 0.2
0.0 0.0 0.0 0.0 0.0 0.0 0.0 0.0 0.0 0.0 0.0 0.0 0.0 0.0 7.4 24.2 7.8 0.2 3.5 1.4 4.8 5.4 6.9 3.1 0.0 0.0 0.0 10.1 30.6 30.8 19.8 7.4 9.8 2.8 0.5 0.3 0.2 9.5 17.0 24.6 13.9 2.8 0.0 0.0 0.0 5.2 0.3
0.0 0.0 0.0 0.0 0.0 0.0 0.0 0.0 0.0 0.0 0.0 0.0 0.0 0.0 2.2 30.0 1.1 0.2 3.6 3.9 2.1 3.8 8.0 3.6 4.4 4.5 2.5 23.2 35.8 19.7 11.1 1.3 8.7 7.9 6.7 8.6 10.6 28.5 16.0 17.2 2.7 0.3 0.0 0.0 4.7 7.7 0.7
0.0 0.0 0.0 0.0 0.0 0.0 0.0 0.0 0.0 0.0 0.0 0.0 0.0 0.0 0.2 18.5 5.2 0.0 0.0 1.8 4.1 5.4 17.8 8.6 12.4 13.1 20.9 38.6 28.3 20.9 12.7 3.7 4.9 2.5 2.4 3.6 16.2 23.9 24.0 34.2 20.9 0.1 0.0 1.2 0.7 0.1 0.6
0.0 0.0 0.0 0.0 0.0 0.0 0.0 0.0 0.0 0.0 0.0 0.0 0.5 0.0 0.0 12.7 11.1 0.0 0.0 0.0 0.0 0.0 3.8 8.8 12.5 8.0 8.0 25.1 16.1 13.4 16.9 11.3 2.8 10.5 2.7 10.0 5.9 13.1 11.5 11.5 1.0 0.0 0.3 0.2 0.2 0.4 1.1